Location: Poughquag
(41.6090°N, 73.6820°W)
Time: 01:10:59
(UTC-04:00)

Hubble Space Telescope - Visible Passes

Search period start: 25 June 2017 00:00
Search period end: 05 July 2017 00:00
Orbit: 538 x 541 km, 28.5° (Epoch: 24 June)

Date Brightness Start Highest point End Pass type
(mag) Time Alt. Az. Time Alt. Az. Time Alt. Az.
02 Jul 3.0 04:39:04 10° S 04:40:06 11° S 04:41:08 10° SSE visible
03 Jul 2.9 04:28:21 10° SSW 04:29:52 12° S 04:31:23 10° SSE visible
04 Jul 2.8 04:18:23 11° SSW 04:19:39 12° S 04:21:26 10° SSE visible
